Starlink 32327

operational
NORAD ID: 61641 Int'l Des: 2024-191 Owner: SPXS Country: US Constellation: starlink
LEOCIRCULAR

Über Starlink 32327

Beschreibung wird geladen...

Live-Position

3D-Globus wird geladen...

Nächste Überflüge

Höhenverlauf

Altitude vs Time

uPlot chart will show altitude changes over time

Zweizeiliger Elementsatz

1 61641U 24191W 26034.26501848 .00000871 00000-0 41144-4 0 9998
2 61641 43.0030 348.7395 0001013 271.6230 88.4506 15.27587259 72275
Epoch: 3. Feb. 2026 • Age: 12 hours

Aktueller Status

Höhe 492.9 km
Geschwindigkeit 7.62 km/s
Subsatellitenpunkt -36.28°S, 119.42°W
Startdatum 23. Okt. 2024
Alter 1.2 years
Typ internet

Technische Details

Klassifizierung Payload
Masse 730.00 kg
Trockenmasse 700.00 kg
Gesamtmasse 730.00 kg
Länge 0.30 m
Durchmesser 4.10 m
Spannweite 29.00 m
Form Box + pan
Hersteller SPXS
Bus-Typ Starlink V2M
Phasenstatus In Orbit
Besitzer/Staat SPXS/US

Große Konstellationen

Loading constellations...